Regional Weather Roundup
Issued by NWS

Home | Current Version | Previous Version | Text Only | Print | Product List | Glossary On
Versions: 1 2 3 4 5 6 7 8 9 10 11 12 13 14 15 16 17 18 19 20 21 22 23 24 25 26 27 28 29 30 31 32 33 34 35 36 37 38 39 40 41 42 43 44 45 46 47 48 49 50
000
ASUS43 KDTX 232310
RWRMI
MICHIGAN HOURLY REGIONAL WEATHER ROUNDUP
NATIONAL WEATHER SERVICE DETROIT/PONTIAC MI
700 PM EDT SAT JUL 23 2016

NOTE: "FAIR" INDICATES FEW OR NO CLOUDS BELOW 12,000 FEET WITH NO
SIGNIFICANT WEATHER AND/OR OBSTRUCTION TO VISIBILITY.

MIZ047>049-052>055-059>063-066>070-074>076-081>083-240000-
SOUTHEAST LOWER MICHIGAN

CITY           SKY/WX    TMP DP  RH WIND       PRES   REMARKS
ADRIAN         MOSUNNY   90  70  51 S9        29.95F HX  95
ALMA           MOSUNNY   90  60  36 CALM      29.96S
ANN ARBOR      MOSUNNY   92  64  39 CALM      29.94F HX  93
BAD AXE        CLOUDY    82  58  44 E6        29.98S
CARO           CLOUDY    88  59  37 E3        29.96F
DETROIT CITY   CLOUDY    87  65  47 E12       29.95S
DETROIT        CLOUDY    92  65  40 E8        29.94S HX  94
FLINT          MOSUNNY   93  56  28 NE8       29.96S HX  91
GROSSE ILE     CLOUDY    87  67  51 SE5       29.93F HX  90
HOWELL         SUNNY     91  51  25 CALM      29.97S

CITY           SKY/WX    TMP DP  RH WIND       PRES   REMARKS
JACKSON        MOSUNNY   88  68  51 CALM      29.97S HX  91
LAMBERTVILLE   MOSUNNY   91  63  38 CALM      29.95F HX  92
LANSING        MOSUNNY   90  61  37 NW3       29.97S HX  90
LAPEER         FAIR      85  66  51 E5        29.98S
MASON          MOSUNNY   89  62  40 CALM      29.96F
MONROE         CLOUDY    90  68  49 SW5       29.93F HX  93
MT. CLEMENS    PTSUNNY   85  64  50 NE10      29.94S
PONTIAC        CLOUDY    90  57  32 VRB3      29.96F
PORT HOPE        N/A     79  63  57 SE6       29.96F
PORT HURON     MOSUNNY   79  63  57 N7        29.97F
TRI CITIES     MOSUNNY   89  62  40 E8        29.96F
MIDLAND        FAIR      89  61  38 S5        29.94F
TROY           PTSUNNY   91  58  32 E8        29.97F HX  90
SAGINAW HB     CLOUDY    88  54  31 E6        29.95F
$$
MIZ043>046-050>051-056>058-064>065-071>073-077>080-240000-
SOUTHWEST LOWER MICHIGAN

CITY           SKY/WX    TMP DP  RH WIND       PRES   REMARKS
BATTLE CREEK   CLOUDY    85  65  51 SW7       29.98S
BENTON HARBOR  CLOUDY    84  71  65 VRB5      29.94F
BIG RAPIDS     MOSUNNY   87  64  47 CALM      29.96F
COLDWATER      CLOUDY    88  63  42 CALM      29.98S
FREMONT        FAIR      85  73  66 W7        29.97S HX  92
HOLLAND        CLOUDY    84  71  65 W7        29.97S
GRAND RAPIDS   CLOUDY    89  65  44 E3        29.96S HX  91
IONIA          FAIR      88  62  41 SE3       29.95F
KALAMAZOO      MOSUNNY   88  65  46 SE3       29.96F HX  90
LUDINGTON      PTSUNNY   79  69  71 SW5       29.95F
MARSHALL       SUNNY     89  66  47 SW5       29.97S HX  91
MOUNT PLEASANT MOSUNNY   90  60  36 S6        29.95S
MUSKEGON       CLOUDY    84  72  67 NW6       29.96F
SOUTH HAVEN    CLOUDY    83  71  65 N6        29.95F
$$
MIZ016>042-240000-
NORTHERN LOWER MICHIGAN

CITY           SKY/WX    TMP DP  RH WIND       PRES   REMARKS
ALPENA         CLOUDY    83  56  39 NE6       29.97S
BEAVER ISLAND  MOSUNNY   84  58  41 CALM      29.96F
BELLAIRE       CLOUDY    85  66  52 CALM      29.95S
CADILLAC       PTSUNNY   86  63  45 W5        29.98F
CHARLEVOIX     MOSUNNY   83  62  48 NW3       29.99S
FRANKFORT      CLOUDY    82  60  46 W3        29.95F
GAYLORD        MOSUNNY   86  56  35 NW3       29.99S
GRAYLING       CLOUDY    88  57  34 NE6       29.98S
HARBOR SPRINGS CLOUDY    82  69  63 CALM      29.96S
HOUGHTON LAKE  CLOUDY    87  57  35 W5        29.98F
MANISTEE       MOSUNNY   83  61  47 NW5       29.95F
OSCODA         MOSUNNY   79  56  44 S9        29.98S
PELLSTON       CLOUDY    85  60  42 NW5       29.96S
ROGERS CITY    CLOUDY    79  57  47 CALM      29.97S HAZE
TRAVERSE CITY  CLOUDY    85  62  46 VRB3      29.93F
$$
MIZ007>008-015-240000-
EASTERN UPPER MICHIGAN

CITY           SKY/WX    TMP DP  RH WIND       PRES   REMARKS
KINROSS        CLOUDY    83  60  45 NW6       29.96S
MACKINAC ISLAN CLOUDY    80  58  46 SW5       29.96S
NEWBERRY       CLOUDY    80  64  59 S3        29.96R HAZE
S. S. MARIE    CLOUDY    84  60  44 NW3       29.94F
MUNISING         N/A     72  64  76 CALM      29.94S
$$
MIZ004>006-011>014-085-240000-
CENTRAL UPPER MICHIGAN

CITY           SKY/WX    TMP DP  RH WIND       PRES   REMARKS
MANISTIQUE     CLOUDY    77  64  64 SW5       29.96S
ESCANABA       PTSUNNY   79  63  57 S5        29.93F
MENOMINEE      PTSUNNY   78  69  73 SE7       29.93F
SAWYER-GWINN   SUNNY     81  61  50 S15       29.96S
$$
MIZ001>003-009>011-084-240000-
WESTERN UPPER MICHIGAN

CITY           SKY/WX    TMP DP  RH WIND       PRES   REMARKS
IRON MOUNTAIN  CLOUDY    81  62  52 SE7       29.92F
HOUGHTON       MOSUNNY   73  60  63 E9        29.93F
COPPER HARBOR    N/A     73  62  68 VRB3      29.92S
IRONWOOD       CLOUDY    79  70  73 SW6       29.87F
$$

ABBREVIATIONS USED IN REMARKS
   TC - TEMPERATURE IN CELSIUS
  WCI - WIND CHILL INDEX
   HX - HEAT INDEX
  VSB - VISIBILITY





USA.gov is the U.S. government's official web portal to all federal, state and local government web resources and services.